Regional Weather Roundup
Issued by NWS

Home | Current Version | Previous Version | Graphics & Text | Print | Product List | Glossary On
Versions: 1 2 3 4 5 6 7 8 9 10 11 12 13 14 15 16 17 18 19 20 21 22 23 24 25 26 27 28 29 30 31 32 33 34 35 36 37 38 39 40 41 42 43 44 45 46 47 48 49 50
000
ASUS45 KPSR 130010
RWRAZ

ARIZONA REGIONAL HOURLY WEATHER ROUNDUP
NATIONAL WEATHER SERVICE PHOENIX AZ
500 PM MST SAT JUL 12 2014

NOTE: FAIR INDICATES FEW OR NO CLOUDS BELOW 12,000 FEET WITH NO
SIGNIFICANT WEATHER AND/OR OBSTRUCTIONS TO VISIBILITY.

AZZ001>003-036-130100-
NORTHWEST ARIZONA

CITY           SKY/WX    TMP DP  RH WIND       PRES   REMARKS
BULLHEAD CITY  MOSUNNY  108 N/A N/A NW3       29.79F
KINGMAN        MOSUNNY   99  37  11 SW15      30.01F
6HR MIN TEMP:  92; 6HR MAX TEMP: 101;

$$

AZZ004>008-015-016-018-130100-
NORTH CENTRAL ARIZONA

CITY           SKY/WX    TMP DP  RH WIND       PRES   REMARKS
GRAND CANYON   SUNNY     87  40  19 VRB5      30.25F
6HR MIN TEMP:  80; 6HR MAX TEMP:  88;

WILLIAMS       PTSUNNY   82  45  26 CALM      30.31F
PRESCOTT       PTSUNNY   91  43  18 SW10      30.11F
6HR MIN TEMP:  86; 6HR MAX TEMP:  94;

FLAGSTAFF      MOSUNNY   83  47  28 W8        30.28F
6HR MIN TEMP:  80; 6HR MAX TEMP:  86;

PAYSON         PTSUNNY   77  61  57 VRB6G13   30.18S
PAGE           SUNNY    101  40  12 NE8       30.03F
6HR MIN TEMP:  88; 6HR MAX TEMP: 101;

$$

AZZ009>014-017-130100-
NORTHEAST ARIZONA

CITY           SKY/WX    TMP DP  RH WIND       PRES   REMARKS
WINSLOW        PTSUNNY   89  51  27 N7        30.10R
6HR MIN TEMP:  87; 6HR MAX TEMP:  97; 6HR PCP: TRACE;

SAINT JOHNS    TSTM      80  57  45 E20G30    30.14R
6HR MIN TEMP:  80; 6HR MAX TEMP:  93;

WINDOW ROCK    PTSUNNY   72  54  53 VRB6      30.26R
6HR MIN TEMP:  72; 6HR MAX TEMP:  87; 6HR PCP: TRACE;

SHOW LOW       PTSUNNY   75  50  41 SW17      30.26S
$$

AZZ023-130100-
GREATER PHOENIX AREA

CITY           SKY/WX    TMP DP  RH WIND       PRES   REMARKS
PHOENIX        PTSUNNY  107  47  13 N6        29.79S HX 103
6HR MIN TEMP: 100; 6HR MAX TEMP: 110;

BUCKEYE          N/A    108  45  12 S3        29.79S HX 103
GLENDALE       PTSUNNY  108  45  12 S10G16    29.80S HX 103
DEER VALLEY    PTSUNNY  103  45  14 S6        29.82S
6HR MIN TEMP:  95; 6HR MAX TEMP: 105;

SCOTTSDALE     PTSUNNY  104  48  15 CALM      29.84S HX 100
6HR MIN TEMP:  96; 6HR MAX TEMP: 106;

MESA-GATEWAY   PTSUNNY  104  43  12 W9        29.85S
CHANDLER       PTSUNNY  108  48  13 S7        29.82R HX 104
$$

AZZ027-028-130100-
SOUTHWEST MARICOPA COUNTY AND PINAL COUNTY

CITY           SKY/WX    TMP DP  RH WIND       PRES   REMARKS
CASA GRANDE    MOSUNNY  102  48  16 CALM      29.85S
6HR MIN TEMP:  95; 6HR MAX TEMP: 106;

$$

AZZ503-504-507>509-130100-
SOUTHEAST ARIZONA

CITY           SKY/WX    TMP DP  RH WIND       PRES   REMARKS
TUCSON         CLOUDY    97  55  24 N16       29.93F
6HR MIN TEMP:  87; 6HR MAX TEMP: 100;

RYAN FIELD       N/A     97  57  26 N14G23    29.91
NOGALES        PTSUNNY   90  55  30 NW8       30.01F
6HR MIN TEMP:  84; 6HR MAX TEMP:  94;

SIERRA VISTA   MOSUNNY   89  54  30 VRB3      30.07F
6HR MIN TEMP:  83; 6HR MAX TEMP:  89;

DOUGLAS        PTSUNNY   93  55  27 NW9       30.00F
6HR MIN TEMP:  85; 6HR MAX TEMP:  95;

SAFFORD        CLOUDY    92  54  27 NW21      29.96R
6HR MIN TEMP:  91; 6HR MAX TEMP: 100;

$$

AZZ020-021-025-026-031-130100-
SOUTHWEST ARIZONA

CITY           SKY/WX    TMP DP  RH WIND       PRES   REMARKS
YUMA           SUNNY    108  39   9 MISG      29.76F HX 102
6HR MIN TEMP:  99; 6HR MAX TEMP: 109;

$$

CAZ031-033-041-043-047-048-061-130100-
SOUTHERN CALIFORNIA

CITY           SKY/WX    TMP DP  RH WIND       PRES   REMARKS
DOWNTOWN L.A.  MOSUNNY   78  60  53 VRB3      29.93F
6HR MIN TEMP:  77; 6HR MAX TEMP:  82;

L.A. AIRPORT   PTSUNNY   74  61  63 W13       29.95F
6HR MIN TEMP:  72; 6HR MAX TEMP:  75;

SAN DIEGO      PTSUNNY   74  60  61 NW10      29.97F
6HR MIN TEMP:  74; 6HR MAX TEMP:  77;

BURBANK        MOSUNNY   81  56  42 S13       29.93F
6HR MIN TEMP:  76; 6HR MAX TEMP:  86;

ONTARIO        PTSUNNY   86  57  37 SW13      29.93S
6HR MIN TEMP:  79; 6HR MAX TEMP:  90;

RIVERSIDE      MOSUNNY   86  56  35 W13G23    29.92F
6HR MIN TEMP:  79; 6HR MAX TEMP:  90;

PALM SPRINGS   PTSUNNY  107  39  10 SE8       29.82F HX 101
6HR MIN TEMP: 100; 6HR MAX TEMP: 108;

EL CENTRO NAS  SUNNY    107  39  10 SW6       29.75F HX 101
6HR MIN TEMP:  96; 6HR MAX TEMP: 108;

IMPERIAL       SUNNY    106  39  10 E6        29.74F HX 100
6HR MIN TEMP:  94; 6HR MAX TEMP: 108;

BLYTHE         SUNNY    108  47  13 MISG      29.76F HX 104
6HR MIN TEMP:  98; 6HR MAX TEMP: 108;

NEEDLES        PTSUNNY  107  42  11 W6        29.80F HX 102
6HR MIN TEMP: 100; 6HR MAX TEMP: 109;

$$

NVZ020-UTZ003-130100-
SOUTHERN NEVADA-UTAH

CITY           SKY/WX    TMP DP  RH WIND       PRES   REMARKS
LAS VEGAS      PTSUNNY  104  37  10 VRB3      29.88F
6HR MIN TEMP:  96; 6HR MAX TEMP: 105;

SALT LAKE CITY MOSUNNY   92  46  20 NW9G17    30.11F
6HR MIN TEMP:  86; 6HR MAX TEMP:  94;

$$

NMZ009-TXZ055-130100-
NEW MEXICO-WEST TEXAS

CITY           SKY/WX    TMP DP  RH WIND       PRES   REMARKS
ALBUQUERQUE    PTSUNNY   89  51  27 SE8       30.13F THUNDER
6HR MIN TEMP:  82; 6HR MAX TEMP:  91; 6HR PCP: TRACE;

EL PASO        CLOUDY    81  59  47 SE9       30.08S
6HR MIN TEMP:  73; 6HR MAX TEMP:  93; 6HR PCP:  0.19;

$$


........................KEY........................
SKY/WX - SKY CONDITION/WEATHER
TMP    - TEMPERATURE IN FAHRENHEIT
DP     - DEW POINT IN FAHRENHEIT
RH     - RELATIVE HUMIDITY IN PERCENT
WIND   - DIRECTION AND SPEED IN MILES PER HOUR (MPH)
VRB    - VARIABLE WIND DIRECTION
PRES   - MEAN SEA LEVEL PRESSURE IN INCHES OF MERCURY
         F - FALLING PRESSURE   R - RISING PRESSURE
         S - STEADY PRESSURE
VSB    - VISIBILITY IN MILES
HX     - HEAT INDEX IN FAHRENHEIT
WCI    - WIND CHILL INDEX IN FAHRENHEIT
TC     - TEMPERATURE IN CELSIUS WHICH IS ALSO KNOWN AS
         TEMPERATURE IN CENTIGRADE
AFB    - AIR FORCE BASE
         LUKE AFB IS LUKE AIR FORCE BASE
         DAVIS-MONTHAN IS DAVIS-MONTHAN AIR FORCE BASE
NAS    - NAVAL AIR STATION
         EL CENTRO NAS IS EL CENTRO NAVAL AIR STATION
N/A    - NOT AVAILABLE


USA.gov is the U.S. government's official web portal to all federal, state and local government web resources and services.